Weather History for KHWY - December, 2012

Change the Weather History Date:

Sunday, December 23, 2012

  Actual Average (KHEF) Record (KHEF)
Temperature  
Mean Temperature 35 °F -  
Max Temperature 50 °F 41 °F 62 °F (2006)
Min Temperature 20 °F 22 °F 6 °F (2000)
Degree Days  
Heating Degree Days 30    
Moisture  
Dew Point 26 °F    
Average Humidity 83    
Maximum Humidity 100    
Minimum Humidity 39    
Precipitation  
Precipitation 0.00 in - - ()
Sea Level Pressure  
Sea Level Pressure 29.99 in    
Wind  
Wind Speed 1 mph (SSW)    
Max Wind Speed 10 mph    
Max Gust Speed -    
Visibility 10 miles    
Events      
Averages and records for this station are not official NWS values.
T = Trace of Precipitation, MM = Missing Value Source: NWS Daily Summary

Daily Weather History Graph

Daily Weather History Graph

Search for Another Location

Airport or City:

Trip Planner

Search our weather history database for the weather conditions in past years. The results will help you decide how hot, cold, wet, or windy it might be!

Date:

Astronomy

Dec. 23, 2012 Rise Set
Actual Time 7:26 AM EST 4:54 PM EST
Civil Twilight 6:56 AM EST 5:24 PM EST
Nautical Twilight 6:22 AM EST 5:57 PM EST
Astronomical Twilight 5:50 AM EST 6:29 PM EST
Moon 1:42 PM EST (12/23) 3:08 AM EST (12/23)
Length of Visible Light 10h 28m
Length of Day
9h 28m
Waxing Gibbous, 81% of the Moon is Illuminated
Dec 23
Waxing Gibbous
Dec 28
Full
Jan 4
Last Quarter
Jan 11
New
Jan 18
First Quarter

Hourly Weather History & Observations

Time (EST) Temp. Windchill Dew Point Humidity Pressure Visibility Wind Dir Wind Speed Gust Speed Precip Events Conditions
12:15 AM 25.0 °F - 24.1 °F 96% 30.04 in 10.0 mi Calm Calm - N/A   Clear
12:35 AM 23.9 °F - 23.9 °F 100% 30.04 in 10.0 mi Calm Calm - N/A   Clear
12:55 AM 24.1 °F - 24.1 °F 100% 30.04 in 10.0 mi Calm Calm - N/A   Clear
1:15 AM 23.4 °F - 23.2 °F 99% 30.04 in 10.0 mi Calm Calm - N/A   Clear
1:35 AM 24.8 °F - 24.8 °F 100% 30.04 in 10.0 mi Calm Calm - N/A   Clear
1:55 AM 23.2 °F - 23.0 °F 99% 30.05 in 10.0 mi Calm Calm - N/A   Clear
2:15 AM 22.5 °F - 22.5 °F 100% 30.05 in 10.0 mi Calm Calm - N/A   Clear
2:35 AM 23.0 °F - 23.0 °F 100% 30.06 in 10.0 mi Calm Calm - N/A   Clear
2:55 AM 22.5 °F - 22.5 °F 100% 30.06 in 10.0 mi Calm Calm - N/A   Clear
3:15 AM 22.6 °F - 22.6 °F 100% 30.06 in 10.0 mi Calm Calm - N/A   Clear
3:35 AM 22.8 °F - 22.8 °F 100% 30.05 in 10.0 mi Calm Calm - N/A   Clear
3:55 AM 21.9 °F - 21.9 °F 100% 30.05 in 10.0 mi Calm Calm - N/A   Clear
4:15 AM 22.1 °F - 22.1 °F 100% 30.05 in 10.0 mi Calm Calm - N/A   Clear
4:55 AM 21.0 °F - 21.0 °F 100% 30.05 in 10.0 mi Calm Calm - N/A   Clear
5:15 AM 21.2 °F - 21.2 °F 100% 30.05 in 10.0 mi Calm Calm - N/A   Clear
5:35 AM 21.0 °F - 21.0 °F 100% 30.04 in 10.0 mi Calm Calm - N/A   Clear
5:55 AM 20.8 °F - 20.8 °F 100% 30.05 in 10.0 mi Calm Calm - N/A   Clear
6:15 AM 20.7 °F - 20.7 °F 100% 30.06 in 10.0 mi Calm Calm - N/A   Clear
6:35 AM 21.0 °F - 21.0 °F 100% 30.05 in 10.0 mi Calm Calm - N/A   Clear
6:55 AM 20.3 °F - 20.3 °F 100% 30.06 in 10.0 mi Calm Calm - N/A   Clear
7:15 AM 20.1 °F - 20.1 °F 100% 30.05 in 10.0 mi Calm Calm - N/A   Clear
7:55 AM 21.7 °F - 21.7 °F 100% 30.06 in 10.0 mi Calm Calm - N/A   Clear
8:15 AM 23.5 °F - 23.5 °F 100% 30.06 in 10.0 mi Calm Calm - N/A   Clear
8:35 AM 26.4 °F - 26.2 °F 99% 30.05 in 10.0 mi Calm Calm - N/A   Clear
8:55 AM 29.5 °F - 28.4 °F 96% 30.04 in 10.0 mi Calm Calm - N/A   Clear
9:15 AM 31.3 °F - 29.5 °F 93% 30.05 in 10.0 mi Calm Calm - N/A   Clear
9:35 AM 33.1 °F - 29.5 °F 87% 30.04 in 10.0 mi Calm Calm - N/A   Clear
9:55 AM 35.6 °F - 30.0 °F 80% 30.04 in 10.0 mi Calm Calm - N/A   Clear
10:15 AM 37.2 °F - 28.8 °F 71% 30.03 in 10.0 mi Calm Calm - N/A   Clear
10:35 AM 40.1 °F - 28.2 °F 63% 30.03 in 10.0 mi Calm Calm - N/A   Clear
10:55 AM 41.0 °F 36.4 °F 26.6 °F 57% 30.02 in 10.0 mi SW 6.9 mph - N/A   Clear
11:15 AM 42.3 °F 40.5 °F 27.3 °F 56% 30.01 in 10.0 mi SSW 3.5 mph - N/A   Clear
11:55 AM 43.7 °F - 27.5 °F 53% 29.98 in 10.0 mi Calm Calm - N/A   Clear
12:15 PM 46.0 °F 44.8 °F 27.5 °F 48% 29.97 in 10.0 mi SSW 3.5 mph - N/A   Clear
12:35 PM 47.8 °F - 28.4 °F 47% 29.95 in 10.0 mi South 3.5 mph - N/A   Clear
12:55 PM 50.0 °F - 26.6 °F 40% 29.95 in 10.0 mi South 10.4 mph - N/A   Clear
1:15 PM 49.3 °F - 25.3 °F 39% 29.94 in 10.0 mi SW 10.4 mph - N/A   Clear
1:35 PM 49.5 °F - 26.8 °F 41% 29.92 in 10.0 mi SSW 8.1 mph - N/A   Clear
1:55 PM 47.8 °F - 26.4 °F 43% 29.92 in 10.0 mi SW 5.8 mph - N/A   Clear
2:15 PM 46.8 °F - 26.6 °F 45% 29.91 in 10.0 mi SSW 4.6 mph - N/A   Clear
2:55 PM 47.3 °F - 28.0 °F 47% 29.90 in 10.0 mi South 6.9 mph - N/A   Clear
3:15 PM 47.3 °F - 29.1 °F 49% 29.90 in 10.0 mi South 4.6 mph - N/A   Clear
3:35 PM 47.5 °F - 29.7 °F 50% 29.90 in 10.0 mi South 4.6 mph - N/A   Clear
3:55 PM 47.5 °F - 29.8 °F 50% 29.90 in 10.0 mi South 3.5 mph - N/A   Clear
4:15 PM 46.8 °F - 30.0 °F 52% 29.90 in 10.0 mi Calm Calm - N/A   Clear
4:35 PM 46.0 °F - 30.2 °F 54% 29.90 in 10.0 mi Calm Calm - N/A   Clear
4:55 PM 45.3 °F - 30.2 °F 56% 29.91 in 10.0 mi Calm Calm - N/A   Clear
5:55 PM 39.6 °F 37.4 °F 29.3 °F 67% 29.91 in 10.0 mi SSW 3.5 mph - N/A   Clear
6:15 PM 36.0 °F - 29.3 °F 77% 29.91 in 10.0 mi Calm Calm - N/A   Clear
6:35 PM 33.3 °F - 29.3 °F 85% 29.92 in 10.0 mi Calm Calm - N/A   Clear
6:55 PM 33.6 °F - 29.8 °F 86% 29.92 in 10.0 mi Calm Calm - N/A   Clear
7:15 PM 32.0 °F - 29.1 °F 89% 29.93 in 10.0 mi Calm Calm - N/A   Clear
7:35 PM 30.4 °F - 28.4 °F 92% 29.92 in 10.0 mi Calm Calm - N/A   Clear
7:55 PM 29.8 °F - 28.9 °F 96% 29.93 in 10.0 mi Calm Calm - N/A   Clear
8:15 PM 29.8 °F - 29.1 °F 97% 29.93 in 10.0 mi Calm Calm - N/A   Clear
8:35 PM 28.4 °F - 28.0 °F 99% 29.94 in 10.0 mi Calm Calm - N/A   Clear
8:55 PM 27.5 °F - 26.2 °F 95% 29.95 in 10.0 mi Calm Calm - N/A   Clear
9:15 PM 27.9 °F - 27.1 °F 97% 29.95 in 10.0 mi Calm Calm - N/A   Clear
9:35 PM 28.0 °F 22.8 °F 27.0 °F 96% 29.96 in 10.0 mi SE 4.6 mph - N/A   Clear
9:55 PM 26.6 °F - 26.1 °F 98% 29.97 in 10.0 mi Calm Calm - N/A   Clear
10:15 PM 27.7 °F - 27.0 °F 97% 29.97 in 10.0 mi Calm Calm - N/A   Clear
10:35 PM 27.1 °F - 26.8 °F 99% 29.97 in 10.0 mi Calm Calm - N/A   Clear
10:55 PM 25.9 °F - 25.9 °F 100% 29.98 in 10.0 mi Calm Calm - N/A   Clear
11:15 PM 29.8 °F - 28.4 °F 94% 29.98 in 10.0 mi Calm Calm - N/A   Clear
11:35 PM 27.5 °F - 27.5 °F 100% 29.98 in 10.0 mi Calm Calm - N/A   Clear
11:55 PM 25.9 °F - 25.9 °F 100% 29.98 in 10.0 mi Calm Calm - N/A   Clear